Wilmington, OH

12:21 PM EST on November 18, 2017 (GMT -0500)
Airborne

Weather History for KILN - September, 2013

Change the Weather History Date:

Thursday, September 26, 2013

  Actual Average (KFFO) Record (KFFO)
Temperature  
Mean Temperature 62 °F -  
Max Temperature 80 °F 70 °F 89 °F (2017)
Min Temperature 44 °F 47 °F 41 °F (2001)
Degree Days  
Heating Degree Days 4    
Growing Degree Days 12 (Base 50)    
Moisture  
Dew Point 48 °F    
Average Humidity 80    
Maximum Humidity 100    
Minimum Humidity 39    
Precipitation  
Precipitation 0.05 in - - ()
Sea Level Pressure  
Sea Level Pressure 30.01 in    
Wind  
Wind Speed 3 mph (NE)    
Max Wind Speed 9 mph    
Max Gust Speed -    
Visibility 5 miles    
Events Fog    
Averages and records for this station are not official NWS values.
T = Trace of Precipitation, MM = Missing Value Source: NWS Daily Summary

Daily Weather History Graph

Daily Weather History Graph

Search for Another Location

Airport or City:

Trip Planner

Search our weather history database for the weather conditions in past years. The results will help you decide how hot, cold, wet, or windy it might be!

Date:

Astronomy

Sep. 26, 2013 Rise Set
Actual Time 7:26 AM EDT 7:25 PM EDT
Civil Twilight 6:59 AM EDT 7:52 PM EDT
Nautical Twilight 6:28 AM EDT 8:23 PM EDT
Astronomical Twilight 5:57 AM EDT 8:54 PM EDT
Moon No Moon Rise 2:16 PM EDT (9/26)
Length of Visible Light 12h 52m
Length of Day
11h 58m
Waning Gibbous, 55% of the Moon is Illuminated
Sep 26
Waning Gibbous
Sep 26
Last Quarter
Oct 4
New
Oct 11
First Quarter
Oct 18
Full

Hourly Weather History & Observations

Time (EDT) Temp. Windchill Dew Point Humidity Pressure Visibility Wind Dir Wind Speed Gust Speed Precip Events Conditions
12:54 AM 51.1 °F - 48.0 °F 89% 29.96 in 9.0 mi NNE 4.6 mph - N/A   Clear
1:54 AM 48.0 °F - 46.9 °F 96% 29.96 in 6.0 mi ENE 3.5 mph - 0.01 in   Clear
2:54 AM 48.9 °F - 46.9 °F 93% 29.95 in 5.0 mi NE 4.6 mph - N/A   Clear
3:36 AM 46.4 °F - 44.6 °F 93% 29.95 in 2.0 mi Calm Calm - 0.01 in   Clear
3:43 AM 46.4 °F - 44.6 °F 93% 29.95 in 1.8 mi Calm Calm - 0.01 in   Clear
3:54 AM 48.0 °F - 46.9 °F 96% 29.96 in 2.0 mi Calm Calm - 0.01 in   Clear
4:05 AM 46.4 °F - 44.6 °F 93% 29.95 in 3.0 mi Calm Calm - N/A   Clear
4:13 AM 46.4 °F - 46.4 °F 100% 29.95 in 1.8 mi Calm Calm - N/A   Clear
4:47 AM 46.4 °F - 46.4 °F 100% 29.95 in 3.0 mi Calm Calm - N/A   Clear
4:54 AM 46.0 °F - 45.0 °F 96% 29.97 in 2.0 mi Calm Calm - N/A   Clear
5:00 AM 44.6 °F - 42.8 °F 93% 29.96 in 0.8 mi Calm Calm - N/A   Clear
5:17 AM 46.4 °F - 44.6 °F 93% 29.97 in 0.2 mi Calm Calm - N/A Fog Fog
5:51 AM 46.4 °F - 44.6 °F 93% 29.97 in 0.5 mi Calm Calm - N/A Fog Fog
5:54 AM 45.0 °F 43.5 °F 45.0 °F 100% 29.99 in 0.2 mi NNE 3.5 mph - N/A Fog Fog
6:07 AM 44.6 °F 43.1 °F 44.6 °F 100% 29.98 in 0.8 mi NNE 3.5 mph - 0.01 in   Clear
6:45 AM 44.6 °F 42.2 °F 44.6 °F 100% 29.99 in 0.2 mi NNE 4.6 mph - 0.01 in Fog Fog
6:54 AM 46.0 °F 42.5 °F 45.0 °F 96% 30.00 in 0.2 mi NNE 6.9 mph - 0.01 in Fog Fog
7:02 AM 46.4 °F 42.4 °F 46.4 °F 100% 29.99 in 0.5 mi NE 8.1 mph - N/A Fog Fog
7:22 AM 46.4 °F 42.9 °F 46.4 °F 100% 30.00 in 1.2 mi NE 6.9 mph - N/A   Clear
7:42 AM 46.4 °F - 46.4 °F 100% 30.00 in 0.8 mi Calm Calm - N/A   Clear
7:51 AM 48.2 °F - 46.4 °F 93% 30.01 in 1.5 mi Calm Calm - N/A   Clear
7:54 AM 48.0 °F - 46.9 °F 96% 30.03 in 2.0 mi Calm Calm - N/A   Clear
8:04 AM 46.4 °F - 46.4 °F 100% 30.01 in 1.0 mi Calm Calm - N/A   Clear
8:39 AM 51.8 °F - 51.8 °F 100% 30.02 in 2.5 mi Calm Calm - N/A   Clear
8:54 AM 54.0 °F - 52.0 °F 93% 30.04 in 4.0 mi NE 4.6 mph - N/A   Clear
9:54 AM 61.0 °F - 55.0 °F 81% 30.05 in 8.0 mi ENE 3.5 mph - N/A   Clear
10:54 AM 68.0 °F - 55.9 °F 65% 30.05 in 10.0 mi Calm Calm - N/A   Clear
11:54 AM 72.0 °F - 57.0 °F 59% 30.05 in 10.0 mi NE 4.6 mph - N/A   Clear
12:54 PM 75.0 °F - 55.0 °F 50% 30.04 in 10.0 mi ENE 8.1 mph - N/A   Partly Cloudy
1:54 PM 75.9 °F - 54.0 °F 46% 30.04 in 10.0 mi Calm Calm - N/A   Clear
2:54 PM 75.9 °F - 54.0 °F 46% 30.02 in 10.0 mi North 8.1 mph - N/A   Partly Cloudy
3:54 PM 79.0 °F - 52.0 °F 39% 30.02 in 10.0 mi NNW 3.5 mph - N/A   Clear
4:54 PM 78.1 °F - 51.1 °F 39% 30.01 in 10.0 mi NE 4.6 mph - N/A   Clear
5:54 PM 78.1 °F - 51.1 °F 39% 30.03 in 10.0 mi North 4.6 mph - N/A   Clear
6:54 PM 72.0 °F - 48.9 °F 44% 30.05 in 10.0 mi NE 5.8 mph - N/A   Clear
7:54 PM 66.0 °F - 46.9 °F 50% 30.06 in 10.0 mi ENE 4.6 mph - N/A   Clear
8:54 PM 64.0 °F - 46.0 °F 52% 30.08 in 10.0 mi ENE 5.8 mph - N/A   Clear
9:54 PM 59.0 °F - 46.0 °F 62% 30.08 in 10.0 mi ENE 4.6 mph - N/A   Clear
10:54 PM 55.9 °F - 46.0 °F 69% 30.09 in 10.0 mi ENE 5.8 mph - 0.01 in   Clear
11:54 PM 55.0 °F - 46.0 °F 72% 30.09 in 10.0 mi NNE 9.2 mph - 0.01 in   Clear